VOYAGER:1:PRINTED,ON:,18-JUL-02:14:33:21:GROUP32
START_TIME,STOP_TIME,SECTOR,SCAN_DIR,E44FLUX,E44UNC,E45FLUX,E45UNC,E37FLUX,E37UNC,P31FLUX,P31UNC
1979-02-27 00:00:42.290 ,1979-02-27 00:01:05.850 ,5,1,9.72,0.820,0.435,0.164,-1.00,-1.00,2.175E-02,2.100E-03
1979-02-27 00:01:06.290 ,1979-02-27 00:01:29.850 ,6,1,8.40,0.762,0.311,0.139,-1.00,-1.00,2.159E-02,2.057E-03
1979-02-27 00:01:30.290 ,1979-02-27 00:01:53.850 ,7,1,10.8,0.866,0.186,0.108,-1.00,-1.00,1.982E-02,1.970E-03
1979-02-27 00:01:54.290 ,1979-02-27 00:02:35.850 ,8,1,8.51,0.582,0.178,7.942E-02,-1.00,-1.00,2.172E-02,1.588E-03
1979-02-27 00:02:35.910 ,1979-02-27 00:02:41.850 ,8,-1,8.44,1.49,0.249,0.249,-1.00,-1.00,1.707E-02,3.724E-03
1979-02-27 00:02:42.290 ,1979-02-27 00:03:05.850 ,7,-1,10.5,0.851,0.497,0.176,-1.00,-1.00,2.317E-02,2.169E-03
1979-02-27 00:03:06.290 ,1979-02-27 00:03:29.850 ,6,-1,8.68,0.775,0.311,0.139,-1.00,-1.00,2.378E-02,2.196E-03
1979-02-27 00:03:30.290 ,1979-02-27 00:03:53.850 ,5,-1,8.33,0.760,0.373,0.152,-1.00,-1.00,2.398E-02,2.207E-03
1979-02-27 00:03:54.290 ,1979-02-27 00:04:17.850 ,4,-1,6.37,0.683,0.435,0.164,-1.00,-1.00,2.414E-02,2.176E-03
1979-02-27 00:04:18.290 ,1979-02-27 00:04:41.850 ,3,-1,9.51,0.811,0.124,8.790E-02,-1.00,-1.00,1.850E-02,1.936E-03
1979-02-27 00:04:42.290 ,1979-02-27 00:05:05.850 ,2,-1,8.61,0.772,0.186,0.108,-1.00,-1.00,2.150E-02,2.126E-03
1979-02-27 00:05:05.920 ,1979-02-27 00:05:30.290 ,1,-1,9.67,1.46,0.414,0.185,-1.00,-1.00,1.771E-02,3.345E-03
1979-02-27 00:05:30.290 ,1979-02-27 00:05:53.850 ,1,1,9.30,0.802,0.497,0.176,-1.00,-1.00,2.159E-02,2.057E-03
1979-02-27 00:05:54.290 ,1979-02-27 00:06:17.850 ,2,1,8.12,0.750,0.186,0.108,-1.00,-1.00,2.257E-02,2.102E-03
1979-02-27 00:06:18.290 ,1979-02-27 00:06:41.850 ,3,1,7.98,0.743,0.435,0.164,-1.00,-1.00,1.981E-02,2.043E-03
1979-02-27 00:06:42.290 ,1979-02-27 00:07:05.850 ,4,1,8.47,0.766,0.249,0.124,-1.00,-1.00,2.061E-02,2.009E-03
1979-02-27 00:07:06.290 ,1979-02-27 00:07:29.850 ,5,1,8.40,0.762,0.249,0.124,-1.00,-1.00,2.255E-02,2.219E-03
1979-02-27 00:07:30.290 ,1979-02-27 00:07:53.850 ,6,1,9.62,0.863,0.249,0.124,-1.00,-1.00,2.296E-02,2.120E-03
1979-02-27 00:07:54.290 ,1979-02-27 00:08:17.850 ,7,1,9.51,0.811,0.373,0.152,-1.00,-1.00,2.198E-02,2.074E-03
1979-02-27 00:08:18.290 ,1979-02-27 00:08:59.850 ,8,1,8.42,0.597,0.249,9.394E-02,-1.00,-1.00,2.193E-02,1.611E-03
1979-02-27 00:08:59.910 ,1979-02-27 00:09:05.850 ,8,-1,7.65,1.42,0.497,0.352,-1.00,-1.00,2.466E-02,4.836E-03
1979-02-27 00:09:06.290 ,1979-02-27 00:09:29.850 ,7,-1,9.30,0.824,0.622,0.196,-1.00,-1.00,1.890E-02,1.958E-03
1979-02-27 00:09:30.290 ,1979-02-27 00:09:53.850 ,6,-1,10.1,0.835,0.559,0.186,-1.00,-1.00,1.749E-02,1.919E-03
1979-02-27 00:09:54.290 ,1979-02-27 00:10:17.850 ,5,-1,8.13,0.771,0.311,0.139,-1.00,-1.00,2.316E-02,2.131E-03
1979-02-27 00:10:18.290 ,1979-02-27 00:10:41.850 ,4,-1,7.77,0.753,0.622,0.196,-1.00,-1.00,2.198E-02,2.074E-03
1979-02-27 00:10:42.290 ,1979-02-27 00:11:05.850 ,3,-1,7.36,0.714,0.497,0.176,-1.00,-1.00,1.870E-02,1.949E-03
1979-02-27 00:11:06.290 ,1979-02-27 00:11:29.850 ,2,-1,7.45,0.760,0.249,0.124,-1.00,-1.00,2.033E-02,2.033E-03
1979-02-27 00:11:29.910 ,1979-02-27 00:11:54.290 ,1,-1,7.03,1.24,0.249,0.144,-1.00,-1.00,2.618E-02,3.857E-03
1979-02-27 00:11:54.290 ,1979-02-27 00:12:17.850 ,1,1,9.58,0.814,0.186,0.108,-1.00,-1.00,1.809E-02,1.916E-03
1979-02-27 00:12:18.290 ,1979-02-27 00:12:41.850 ,2,1,9.51,0.811,0.249,0.124,-1.00,-1.00,2.215E-02,2.122E-03
1979-02-27 00:12:42.290 ,1979-02-27 00:13:05.850 ,3,1,7.29,0.710,0.186,0.108,-1.00,-1.00,1.992E-02,2.011E-03
1979-02-27 00:13:06.290 ,1979-02-27 00:13:29.850 ,4,1,7.70,0.731,0.373,0.152,-1.00,-1.00,1.931E-02,1.979E-03
1979-02-27 00:13:30.290 ,1979-02-27 00:13:53.850 ,5,1,8.12,0.750,0.249,0.124,-1.00,-1.00,2.335E-02,2.138E-03
1979-02-27 00:13:54.290 ,1979-02-27 00:14:17.850 ,6,1,8.47,0.766,0.373,0.152,-1.00,-1.00,2.033E-02,2.033E-03
1979-02-27 00:14:18.290 ,1979-02-27 00:14:41.850 ,7,1,9.92,0.830,0.559,0.186,-1.00,-1.00,2.375E-02,2.156E-03
1979-02-27 00:14:42.290 ,1979-02-27 00:15:23.850 ,8,1,9.35,0.611,0.639,0.151,-1.00,-1.00,2.099E-02,1.577E-03
1979-02-27 00:15:23.910 ,1979-02-27 00:15:29.850 ,8,-1,6.33,1.29,0.249,0.249,-1.00,-1.00,1.850E-02,3.627E-03
1979-02-27 00:15:30.290 ,1979-02-27 00:15:53.850 ,7,-1,7.40,0.735,0.311,0.139,-1.00,-1.00,2.080E-02,2.018E-03
1979-02-27 00:15:54.290 ,1979-02-27 00:16:17.850 ,6,-1,7.91,0.760,0.497,0.176,-1.00,-1.00,1.768E-02,1.895E-03
1979-02-27 00:16:18.290 ,1979-02-27 00:16:41.850 ,5,-1,8.42,0.785,0.186,0.108,-1.00,-1.00,1.667E-02,1.839E-03
1979-02-27 00:16:42.290 ,1979-02-27 00:17:05.850 ,4,-1,7.84,0.738,0.124,8.790E-02,-1.00,-1.00,1.829E-02,1.926E-03
1979-02-27 00:17:06.290 ,1979-02-27 00:17:29.850 ,3,-1,7.69,0.750,0.249,0.124,-1.00,-1.00,1.729E-02,1.945E-03
1979-02-27 00:17:30.290 ,1979-02-27 00:17:53.850 ,2,-1,8.06,0.768,0.435,0.164,-1.00,-1.00,2.139E-02,2.049E-03
1979-02-27 00:17:53.920 ,1979-02-27 00:18:18.290 ,1,-1,9.01,1.41,0.332,0.166,-1.00,-1.00,1.834E-02,3.404E-03
1979-02-27 00:18:18.290 ,1979-02-27 00:18:41.850 ,1,1,7.91,0.740,0.249,0.124,-1.00,-1.00,2.316E-02,2.131E-03
1979-02-27 00:18:42.290 ,1979-02-27 00:19:05.850 ,2,1,8.47,0.766,0.311,0.139,-1.00,-1.00,1.809E-02,1.916E-03
1979-02-27 00:19:06.290 ,1979-02-27 00:19:29.850 ,3,1,8.88,0.784,0.435,0.164,-1.00,-1.00,1.939E-02,2.021E-03
1979-02-27 00:19:30.290 ,1979-02-27 00:19:53.850 ,4,1,6.96,0.713,0.249,0.249,-1.00,-1.00,1.850E-02,1.936E-03
1979-02-27 00:19:54.290 ,1979-02-27 00:20:11.850 ,5,1,7.82,0.857,0.580,0.219,-1.00,-1.00,1.977E-02,2.431E-03
1979-02-27 03:23:47.920 ,1979-02-27 03:24:11.920 ,9,0,8.44,0.745,0.249,0.111,0.000E+00,0.000E+00,1.992E-02,1.942E-03
1979-02-27 03:24:11.920 ,1979-02-27 03:24:17.850 ,1,1,8.97,1.54,0.000E+00,0.000E+00,-1.00,-1.00,2.205E-02,3.959E-03
1979-02-27 03:24:18.290 ,1979-02-27 03:24:41.850 ,2,1,7.70,0.731,0.373,0.152,-1.00,-1.00,2.139E-02,2.049E-03
1979-02-27 03:24:42.290 ,1979-02-27 03:25:05.850 ,3,1,7.62,0.746,0.186,0.108,-1.00,-1.00,2.045E-02,2.073E-03
1979-02-27 03:25:06.290 ,1979-02-27 03:25:29.850 ,4,1,5.93,0.659,0.435,0.164,-1.00,-1.00,2.093E-02,2.061E-03
1979-02-27 03:25:30.290 ,1979-02-27 03:25:53.850 ,5,1,7.98,0.743,0.373,0.152,-1.00,-1.00,2.061E-02,2.009E-03
1979-02-27 03:25:54.290 ,1979-02-27 03:26:17.850 ,6,1,9.85,0.827,0.249,0.124,-1.00,-1.00,1.789E-02,1.906E-03
1979-02-27 03:26:18.290 ,1979-02-27 03:26:41.850 ,7,1,9.30,0.802,0.124,8.790E-02,-1.00,-1.00,2.021E-02,1.990E-03
1979-02-27 03:26:42.290 ,1979-02-27 03:27:23.850 ,8,1,9.67,0.621,0.320,0.107,-1.00,-1.00,2.107E-02,1.597E-03
1979-02-27 03:27:23.920 ,1979-02-27 03:27:29.850 ,8,-1,9.23,1.56,0.497,0.352,-1.00,-1.00,1.992E-02,3.763E-03
1979-02-27 03:27:30.290 ,1979-02-27 03:27:53.850 ,7,-1,11.4,0.912,0.435,0.164,-1.00,-1.00,2.114E-02,2.071E-03
1979-02-27 03:27:54.290 ,1979-02-27 03:28:17.850 ,6,-1,8.68,0.775,0.497,0.176,-1.00,-1.00,1.707E-02,1.931E-03
1979-02-27 03:28:18.290 ,1979-02-27 03:28:41.850 ,5,-1,7.77,0.734,0.684,0.206,-1.00,-1.00,2.119E-02,2.037E-03
1979-02-27 03:28:42.290 ,1979-02-27 03:29:05.850 ,4,-1,7.84,0.757,0.311,0.139,-1.00,-1.00,2.319E-02,2.210E-03
1979-02-27 03:29:06.290 ,1979-02-27 03:29:29.850 ,3,-1,10.3,0.844,0.249,0.124,-1.00,-1.00,2.134E-02,2.081E-03
1979-02-27 03:29:30.290 ,1979-02-27 03:29:53.850 ,2,-1,9.09,0.794,0.435,0.164,-1.00,-1.00,1.882E-02,2.029E-03
1979-02-27 03:29:53.920 ,1979-02-27 03:30:18.290 ,1,-1,10.3,1.51,0.912,0.275,-1.00,-1.00,1.992E-02,3.364E-03
1979-02-27 03:30:18.290 ,1979-02-27 03:30:41.850 ,1,1,8.68,0.775,0.373,0.152,-1.00,-1.00,1.728E-02,1.873E-03
1979-02-27 03:30:42.290 ,1979-02-27 03:31:05.850 ,2,1,8.81,0.781,0.311,0.139,-1.00,-1.00,2.218E-02,2.086E-03
1979-02-27 03:31:06.290 ,1979-02-27 03:31:29.850 ,3,1,7.98,0.765,0.497,0.176,-1.00,-1.00,2.424E-02,2.257E-03
1979-02-27 03:31:30.290 ,1979-02-27 03:31:53.850 ,4,1,7.50,0.720,0.311,0.139,-1.00,-1.00,1.687E-02,1.850E-03
1979-02-27 03:31:54.290 ,1979-02-27 03:32:17.850 ,5,1,9.09,0.794,0.559,0.186,-1.00,-1.00,2.012E-02,2.022E-03
1979-02-27 03:32:18.290 ,1979-02-27 03:32:41.850 ,6,1,8.74,0.779,0.497,0.176,-1.00,-1.00,2.014E-02,2.099E-03
1979-02-27 03:32:42.290 ,1979-02-27 03:33:05.850 ,7,1,7.70,0.731,0.497,0.176,-1.00,-1.00,1.931E-02,1.979E-03
1979-02-27 03:33:06.290 ,1979-02-27 03:33:47.850 ,8,1,8.90,0.605,0.426,0.123,-1.00,-1.00,1.980E-02,1.531E-03
1979-02-27 03:33:47.920 ,1979-02-27 03:33:53.850 ,8,-1,9.23,1.56,0.497,0.352,-1.00,-1.00,2.033E-02,4.065E-03
1979-02-27 03:33:54.290 ,1979-02-27 03:34:17.850 ,7,-1,8.81,0.781,0.311,0.139,-1.00,-1.00,2.100E-02,2.028E-03
1979-02-27 03:34:18.290 ,1979-02-27 03:34:41.850 ,6,-1,9.16,0.797,0.497,0.176,-1.00,-1.00,2.297E-02,2.160E-03
1979-02-27 03:34:42.290 ,1979-02-27 03:35:05.850 ,5,-1,9.01,0.812,0.249,0.124,-1.00,-1.00,1.904E-02,1.930E-03
1979-02-27 03:35:06.290 ,1979-02-27 03:35:29.850 ,4,-1,7.47,0.739,0.311,0.139,-1.00,-1.00,1.992E-02,2.011E-03
1979-02-27 03:35:30.290 ,1979-02-27 03:35:53.850 ,3,-1,9.09,0.794,0.311,0.139,-1.00,-1.00,2.355E-02,2.149E-03
1979-02-27 03:35:54.290 ,1979-02-27 03:36:17.850 ,2,-1,8.26,0.756,0.249,0.124,-1.00,-1.00,2.375E-02,2.156E-03
1979-02-27 03:36:17.920 ,1979-02-27 03:36:42.290 ,1,-1,9.67,1.46,0.249,0.144,-1.00,-1.00,2.846E-02,4.024E-03
1979-02-27 03:36:42.290 ,1979-02-27 03:37:05.850 ,1,1,8.88,0.784,0.311,0.139,-1.00,-1.00,2.114E-02,2.071E-03
1979-02-27 03:37:06.290 ,1979-02-27 03:37:29.850 ,2,1,9.16,0.797,0.186,0.108,-1.00,-1.00,1.688E-02,1.820E-03
1979-02-27 03:37:30.290 ,1979-02-27 03:37:53.850 ,3,1,9.44,0.808,0.311,0.139,-1.00,-1.00,2.198E-02,2.074E-03
1979-02-27 03:37:54.290 ,1979-02-27 03:38:17.850 ,4,1,8.79,0.802,0.311,0.139,-1.00,-1.00,2.114E-02,2.071E-03
1979-02-27 03:38:18.290 ,1979-02-27 03:38:41.850 ,5,1,8.47,0.766,0.311,0.139,-1.00,-1.00,2.257E-02,2.102E-03
1979-02-27 03:38:42.290 ,1979-02-27 03:39:05.850 ,6,1,9.38,0.828,0.249,0.124,-1.00,-1.00,1.623E-02,1.849E-03
1979-02-27 03:39:06.290 ,1979-02-27 03:39:29.850 ,7,1,9.65,0.817,0.311,0.139,-1.00,-1.00,2.532E-02,2.227E-03
1979-02-27 03:39:30.290 ,1979-02-27 03:40:11.850 ,8,1,9.55,0.616,0.249,9.394E-02,-1.00,-1.00,2.185E-02,1.574E-03
1979-02-27 03:40:11.920 ,1979-02-27 03:40:17.850 ,8,-1,8.18,1.47,0.249,0.249,-1.00,-1.00,2.632E-02,4.327E-03
1979-02-27 03:40:18.290 ,1979-02-27 03:40:41.850 ,7,-1,8.81,0.781,0.186,0.108,-1.00,-1.00,2.218E-02,2.086E-03
1979-02-27 03:40:42.290 ,1979-02-27 03:41:05.850 ,6,-1,10.2,0.862,0.311,0.139,-1.00,-1.00,1.821E-02,2.035E-03
1979-02-27 03:41:06.290 ,1979-02-27 03:41:29.850 ,5,-1,7.98,0.743,0.373,0.152,-1.00,-1.00,2.100E-02,2.028E-03
1979-02-27 03:41:30.290 ,1979-02-27 03:41:53.850 ,4,-1,7.36,0.714,0.373,0.152,-1.00,-1.00,2.079E-02,2.131E-03
1979-02-27 03:41:54.290 ,1979-02-27 03:42:17.850 ,3,-1,8.28,0.779,0.435,0.164,-1.00,-1.00,2.053E-02,2.040E-03
1979-02-27 03:42:18.290 ,1979-02-27 03:42:41.850 ,2,-1,9.16,0.797,0.435,0.164,-1.00,-1.00,2.061E-02,2.009E-03
1979-02-27 03:42:41.920 ,1979-02-27 03:43:06.290 ,1,-1,10.2,1.38,0.414,0.185,-1.00,-1.00,2.276E-02,3.596E-03
1979-02-27 03:43:06.290 ,1979-02-27 03:43:29.850 ,1,1,9.16,0.797,0.435,0.164,-1.00,-1.00,2.414E-02,2.176E-03
1979-02-27 03:43:30.290 ,1979-02-27 03:43:53.850 ,2,1,8.19,0.754,0.497,0.176,-1.00,-1.00,2.297E-02,2.160E-03
1979-02-27 03:43:54.290 ,1979-02-27 03:44:17.850 ,3,1,6.76,0.745,0.124,8.790E-02,-1.00,-1.00,1.825E-02,1.891E-03
1979-02-27 03:44:18.290 ,1979-02-27 03:44:41.850 ,4,1,7.56,0.725,0.373,0.152,-1.00,-1.00,1.789E-02,1.906E-03
1979-02-27 03:44:42.290 ,1979-02-27 03:45:05.850 ,5,1,8.74,0.779,0.249,0.124,-1.00,-1.00,2.080E-02,2.018E-03
1979-02-27 03:45:06.290 ,1979-02-27 03:45:29.850 ,6,1,9.72,0.820,0.435,0.164,-1.00,-1.00,1.992E-02,2.011E-03
1979-02-27 03:45:30.290 ,1979-02-27 03:45:53.850 ,7,1,8.88,0.784,0.373,0.152,-1.00,-1.00,2.134E-02,2.081E-03
1979-02-27 03:45:54.290 ,1979-02-27 03:46:35.850 ,8,1,8.55,0.584,0.497,0.133,-1.00,-1.00,2.091E-02,1.558E-03
1979-02-27 03:46:35.920 ,1979-02-27 03:46:41.850 ,8,-1,6.59,1.47,0.746,0.431,-1.00,-1.00,2.205E-02,3.959E-03
1979-02-27 03:46:42.290 ,1979-02-27 03:47:05.850 ,7,-1,8.06,0.768,0.186,0.108,-1.00,-1.00,2.041E-02,1.999E-03
1979-02-27 03:47:06.290 ,1979-02-27 03:47:29.850 ,6,-1,8.54,0.770,0.435,0.164,-1.00,-1.00,2.195E-02,2.109E-03
1979-02-27 03:47:30.290 ,1979-02-27 03:47:53.850 ,5,-1,8.95,0.788,0.559,0.186,-1.00,-1.00,1.817E-02,1.993E-03
1979-02-27 03:47:54.290 ,1979-02-27 03:48:17.850 ,4,-1,7.56,0.725,0.124,8.790E-02,-1.00,-1.00,1.707E-02,1.897E-03
1979-02-27 03:48:18.290 ,1979-02-27 03:48:41.850 ,3,-1,9.58,0.814,0.249,0.124,-1.00,-1.00,2.119E-02,2.037E-03
1979-02-27 03:48:42.290 ,1979-02-27 03:49:05.850 ,2,-1,7.84,0.738,0.124,8.790E-02,-1.00,-1.00,2.159E-02,2.057E-03
1979-02-27 03:49:05.920 ,1979-02-27 03:49:30.290 ,1,-1,7.50,0.720,0.166,0.117,-1.00,-1.00,2.276E-02,2.113E-03
1979-02-27 03:49:30.290 ,1979-02-27 03:49:53.850 ,1,1,9.23,0.799,0.435,0.164,-1.00,-1.00,2.073E-02,2.050E-03
1979-02-27 03:49:54.290 ,1979-02-27 03:50:17.850 ,2,1,9.44,0.808,0.435,0.164,-1.00,-1.00,1.876E-02,1.987E-03
1979-02-27 03:50:18.290 ,1979-02-27 03:50:41.850 ,3,1,10.1,0.838,0.311,0.139,-1.00,-1.00,2.014E-02,2.099E-03
1979-02-27 03:50:42.290 ,1979-02-27 03:51:05.850 ,4,1,7.56,0.725,0.373,0.152,-1.00,-1.00,1.606E-02,1.806E-03
1979-02-27 03:51:06.290 ,1979-02-27 03:51:29.850 ,5,1,8.79,0.802,0.186,0.108,-1.00,-1.00,1.687E-02,1.850E-03
1979-02-27 03:51:30.290 ,1979-02-27 03:51:53.850 ,6,1,9.58,0.814,0.311,0.139,-1.00,-1.00,1.813E-02,1.954E-03
1979-02-27 03:51:54.290 ,1979-02-27 03:52:17.850 ,7,1,10.3,0.847,6.216E-02,6.216E-02,-1.00,-1.00,1.644E-02,1.860E-03
1979-02-27 03:52:18.290 ,1979-02-27 03:52:59.850 ,8,1,7.66,0.562,0.355,0.112,-1.00,-1.00,2.207E-02,1.600E-03
1979-02-27 03:52:59.920 ,1979-02-27 03:53:05.850 ,8,-1,7.91,1.44,0.497,0.352,-1.00,-1.00,2.276E-02,4.300E-03
1979-02-27 03:53:06.290 ,1979-02-27 03:53:29.850 ,7,-1,9.45,0.831,0.497,0.176,-1.00,-1.00,2.154E-02,2.091E-03
1979-02-27 03:53:30.290 ,1979-02-27 03:53:53.850 ,6,-1,8.61,0.772,0.435,0.164,-1.00,-1.00,2.532E-02,2.227E-03
1979-02-27 03:53:54.290 ,1979-02-27 03:54:17.850 ,5,-1,7.84,0.757,0.373,0.152,-1.00,-1.00,1.972E-02,1.999E-03
1979-02-27 03:54:18.290 ,1979-02-27 03:54:41.850 ,4,-1,6.87,0.690,0.311,0.139,-1.00,-1.00,2.021E-02,1.990E-03
1979-02-27 03:54:42.290 ,1979-02-27 03:55:05.850 ,3,-1,9.01,0.812,0.186,0.108,-1.00,-1.00,1.845E-02,1.902E-03
1979-02-27 03:55:06.290 ,1979-02-27 03:55:29.850 ,2,-1,8.50,0.789,0.622,0.196,-1.00,-1.00,1.817E-02,1.993E-03
1979-02-27 03:55:29.920 ,1979-02-27 03:55:54.290 ,1,-1,6.81,1.22,0.580,0.219,-1.00,-1.00,1.778E-02,3.557E-03
1979-02-27 03:55:54.290 ,1979-02-27 03:56:17.850 ,1,1,8.74,0.779,0.497,0.176,-1.00,-1.00,2.237E-02,2.094E-03
1979-02-27 03:56:18.290 ,1979-02-27 03:56:41.850 ,2,1,7.77,0.734,0.435,0.164,-1.00,-1.00,1.771E-02,1.931E-03
1979-02-27 03:56:42.290 ,1979-02-27 03:57:05.850 ,3,1,8.95,0.788,0.435,0.164,-1.00,-1.00,1.707E-02,1.931E-03
1979-02-27 03:57:06.290 ,1979-02-27 03:57:29.850 ,4,1,6.89,0.710,0.124,8.790E-02,-1.00,-1.00,2.101E-02,2.144E-03
1979-02-27 03:57:30.290 ,1979-02-27 03:57:53.850 ,5,1,7.77,0.734,0.311,0.139,-1.00,-1.00,1.728E-02,1.873E-03
1979-02-27 03:57:54.290 ,1979-02-27 03:58:17.850 ,6,1,8.14,0.794,0.373,0.152,-1.00,-1.00,2.100E-02,2.028E-03
1979-02-27 03:58:18.290 ,1979-02-27 03:58:41.850 ,7,1,8.54,0.770,0.311,0.139,-1.00,-1.00,2.080E-02,2.018E-03
1979-02-27 03:58:42.290 ,1979-02-27 03:59:23.850 ,8,1,9.71,0.622,0.533,0.138,-1.00,-1.00,2.125E-02,1.571E-03
1979-02-27 03:59:23.920 ,1979-02-27 03:59:29.850 ,8,-1,7.91,1.44,0.000E+00,0.000E+00,-1.00,-1.00,2.063E-02,3.829E-03
1979-02-27 03:59:30.290 ,1979-02-27 03:59:53.850 ,7,-1,9.51,0.811,0.373,0.152,-1.00,-1.00,1.962E-02,1.962E-03
1979-02-27 03:59:54.290 ,1979-02-27 04:00:17.850 ,6,-1,8.54,0.770,0.249,0.124,-1.00,-1.00,2.002E-02,1.980E-03
1979-02-27 04:00:18.290 ,1979-02-27 04:00:41.850 ,5,-1,8.19,0.754,0.435,0.164,-1.00,-1.00,2.322E-02,2.297E-03
1979-02-27 04:00:42.290 ,1979-02-27 04:01:05.850 ,4,-1,8.40,0.762,0.622,0.196,-1.00,-1.00,1.982E-02,1.970E-03
1979-02-27 04:01:06.290 ,1979-02-27 04:01:29.850 ,3,-1,7.33,0.733,0.311,0.139,-1.00,-1.00,2.296E-02,2.120E-03
1979-02-27 04:01:30.290 ,1979-02-27 04:01:53.850 ,2,-1,9.44,0.808,0.124,8.790E-02,-1.00,-1.00,2.139E-02,2.049E-03
1979-02-27 04:01:53.920 ,1979-02-27 04:02:18.290 ,1,-1,9.42,1.33,8.288E-02,8.288E-02,-1.00,-1.00,2.220E-02,3.551E-03
1979-02-27 04:02:18.290 ,1979-02-27 04:02:41.850 ,1,1,7.56,0.725,0.124,8.790E-02,-1.00,-1.00,1.855E-02,1.977E-03
1979-02-27 04:02:42.290 ,1979-02-27 04:03:05.850 ,2,1,9.16,0.797,0.497,0.176,-1.00,-1.00,2.087E-02,2.097E-03
1979-02-27 04:03:06.290 ,1979-02-27 04:03:29.850 ,3,1,8.26,0.756,0.373,0.152,-1.00,-1.00,1.749E-02,1.919E-03
1979-02-27 04:03:30.290 ,1979-02-27 04:03:53.850 ,4,1,7.08,0.700,0.373,0.152,-1.00,-1.00,1.911E-02,1.970E-03
1979-02-27 04:03:54.290 ,1979-02-27 04:04:17.850 ,5,1,8.88,0.784,0.249,0.124,-1.00,-1.00,1.484E-02,1.736E-03
1979-02-27 04:04:18.290 ,1979-02-27 04:04:41.850 ,6,1,8.06,0.768,0.186,0.108,-1.00,-1.00,1.931E-02,1.979E-03
1979-02-27 04:04:42.290 ,1979-02-27 04:05:05.850 ,7,1,9.23,0.799,0.311,0.139,-1.00,-1.00,1.792E-02,1.943E-03
1979-02-27 04:05:06.290 ,1979-02-27 04:05:47.850 ,8,1,8.92,0.626,0.284,0.100,-1.00,-1.00,1.980E-02,1.531E-03
1979-02-27 04:05:47.920 ,1979-02-27 04:05:53.850 ,8,-1,11.1,1.71,0.497,0.352,-1.00,-1.00,1.707E-02,3.484E-03
1979-02-27 04:05:54.290 ,1979-02-27 04:06:17.850 ,7,-1,9.99,0.832,0.186,0.108,-1.00,-1.00,2.192E-02,2.148E-03
1979-02-27 04:06:18.290 ,1979-02-27 04:06:41.850 ,6,-1,8.26,0.756,0.311,0.139,-1.00,-1.00,2.100E-02,2.028E-03
1979-02-27 04:06:42.290 ,1979-02-27 04:07:05.850 ,5,-1,7.56,0.725,0.311,0.139,-1.00,-1.00,2.093E-02,2.061E-03
1979-02-27 04:07:06.290 ,1979-02-27 04:07:29.850 ,4,-1,7.70,0.731,0.622,0.196,-1.00,-1.00,2.002E-02,2.052E-03
1979-02-27 04:07:30.290 ,1979-02-27 04:07:53.850 ,3,-1,8.45,0.810,0.373,0.152,-1.00,-1.00,2.433E-02,2.182E-03
1979-02-27 04:07:54.290 ,1979-02-27 04:08:17.850 ,2,-1,7.98,0.743,0.311,0.139,-1.00,-1.00,2.316E-02,2.131E-03
1979-02-27 04:08:17.920 ,1979-02-27 04:08:42.290 ,1,-1,7.72,1.21,0.166,0.117,-1.00,-1.00,1.352E-02,3.100E-03
1979-02-27 04:08:42.290 ,1979-02-27 04:09:05.850 ,1,1,9.02,0.791,0.124,8.790E-02,-1.00,-1.00,1.861E-02,2.018E-03
1979-02-27 04:09:06.290 ,1979-02-27 04:09:29.850 ,2,1,7.98,0.743,0.249,0.124,-1.00,-1.00,2.080E-02,2.018E-03
1979-02-27 04:09:30.290 ,1979-02-27 04:09:53.850 ,3,1,8.19,0.754,0.559,0.186,-1.00,-1.00,2.317E-02,2.169E-03
1979-02-27 04:09:54.290 ,1979-02-27 04:10:17.850 ,4,1,7.56,0.725,0.249,0.124,-1.00,-1.00,2.178E-02,2.066E-03
1979-02-27 04:10:18.290 ,1979-02-27 04:10:41.850 ,5,1,7.17,0.769,0.622,0.196,-1.00,-1.00,1.667E-02,1.839E-03
1979-02-27 04:10:42.290 ,1979-02-27 04:11:05.850 ,6,1,11.1,0.899,0.497,0.176,-1.00,-1.00,1.727E-02,1.840E-03
1979-02-27 04:11:06.290 ,1979-02-27 04:11:29.850 ,7,1,10.7,0.884,0.249,0.124,-1.00,-1.00,1.943E-02,1.952E-03
1979-02-27 04:11:30.290 ,1979-02-27 04:12:11.850 ,8,1,8.09,0.595,0.249,9.394E-02,-1.00,-1.00,1.962E-02,1.539E-03
1979-02-27 04:12:11.920 ,1979-02-27 04:12:17.850 ,8,-1,7.65,1.42,0.249,0.249,-1.00,-1.00,1.707E-02,3.484E-03
1979-02-27 04:12:18.290 ,1979-02-27 04:12:41.850 ,7,-1,9.02,0.791,0.311,0.139,-1.00,-1.00,2.041E-02,1.999E-03
1979-02-27 04:12:42.290 ,1979-02-27 04:13:05.850 ,6,-1,7.91,0.740,0.249,0.124,-1.00,-1.00,1.918E-02,2.008E-03
1979-02-27 04:13:06.290 ,1979-02-27 04:13:29.850 ,5,-1,8.06,0.768,0.249,0.124,-1.00,-1.00,1.923E-02,1.941E-03
1979-02-27 04:13:30.290 ,1979-02-27 04:13:53.850 ,4,-1,7.70,0.731,0.311,0.139,-1.00,-1.00,2.355E-02,2.149E-03
1979-02-27 04:13:54.290 ,1979-02-27 04:14:17.850 ,3,-1,8.12,0.750,0.373,0.152,-1.00,-1.00,2.139E-02,2.049E-03
1979-02-27 04:14:18.290 ,1979-02-27 04:14:41.850 ,2,-1,8.57,0.791,0.622,0.196,-1.00,-1.00,1.825E-02,1.891E-03
1979-02-27 04:14:41.920 ,1979-02-27 04:15:06.290 ,1,-1,11.9,1.49,0.166,0.117,-1.00,-1.00,2.106E-02,3.461E-03
1979-02-27 04:15:06.290 ,1979-02-27 04:15:29.850 ,1,1,8.81,0.781,0.249,0.124,-1.00,-1.00,2.175E-02,2.100E-03
1979-02-27 04:15:30.290 ,1979-02-27 04:15:53.860 ,2,1,9.30,0.802,0.311,0.139,-1.00,-1.00,1.771E-02,1.931E-03
1979-02-27 04:15:54.290 ,1979-02-27 04:16:17.860 ,3,1,8.95,0.788,0.249,0.124,-1.00,-1.00,2.159E-02,2.057E-03
1979-02-27 04:16:18.290 ,1979-02-27 04:16:35.860 ,4,1,7.25,0.826,0.249,0.144,-1.00,-1.00,2.439E-02,2.569E-03
1979-02-27 04:16:35.920 ,1979-02-27 04:16:59.920 ,9,0,8.35,1.35,0.746,0.431,-1.00,-1.00,1.821E-02,3.218E-03
1979-02-27 04:17:23.920 ,1979-02-27 04:17:29.860 ,6,1,7.38,1.39,1.49,0.609,-1.00,-1.00,2.348E-02,4.086E-03
1979-02-27 04:17:30.290 ,1979-02-27 04:17:53.860 ,7,1,9.37,0.805,6.216E-02,6.216E-02,-1.00,-1.00,2.198E-02,2.074E-03
1979-02-27 04:17:54.290 ,1979-02-27 04:18:35.860 ,8,1,9.71,0.622,0.213,8.698E-02,-1.00,-1.00,2.393E-02,1.664E-03
1979-02-27 04:18:35.920 ,1979-02-27 04:18:41.860 ,8,-1,10.0,1.63,0.249,0.249,-1.00,-1.00,1.209E-02,2.933E-03
1979-02-27 04:18:42.290 ,1979-02-27 04:19:05.860 ,7,-1,9.16,0.797,0.622,0.196,-1.00,-1.00,2.123E-02,2.153E-03
1979-02-27 04:19:06.290 ,1979-02-27 04:19:29.860 ,6,-1,8.81,0.781,0.435,0.164,-1.00,-1.00,2.159E-02,2.057E-03
1979-02-27 04:19:30.290 ,1979-02-27 04:19:53.860 ,5,-1,9.02,0.791,0.311,0.139,-1.00,-1.00,2.218E-02,2.086E-03
1979-02-27 04:19:54.290 ,1979-02-27 04:20:17.860 ,4,-1,7.70,0.731,0.684,0.206,-1.00,-1.00,1.688E-02,1.820E-03
1979-02-27 04:20:18.290 ,1979-02-27 04:20:41.860 ,3,-1,8.05,0.747,0.373,0.152,-1.00,-1.00,1.829E-02,1.926E-03
1979-02-27 04:20:42.290 ,1979-02-27 04:21:05.860 ,2,-1,8.81,0.781,0.249,0.124,-1.00,-1.00,1.870E-02,1.949E-03
1979-02-27 04:21:05.920 ,1979-02-27 04:21:30.290 ,1,-1,9.04,1.30,0.249,0.144,-1.00,-1.00,1.821E-02,3.218E-03
1979-02-27 04:21:30.290 ,1979-02-27 04:21:53.860 ,1,1,9.79,0.823,0.311,0.139,-1.00,-1.00,1.729E-02,1.945E-03
1979-02-27 04:21:54.290 ,1979-02-27 04:22:17.860 ,2,1,6.87,0.690,0.373,0.152,-1.00,-1.00,1.931E-02,1.979E-03
1979-02-27 04:22:18.290 ,1979-02-27 04:22:41.860 ,3,1,7.77,0.734,0.622,0.196,-1.00,-1.00,2.033E-02,2.033E-03
1979-02-27 04:22:42.290 ,1979-02-27 04:23:05.860 ,4,1,7.22,0.707,0.497,0.176,-1.00,-1.00,2.061E-02,2.009E-03
1979-02-27 04:23:06.290 ,1979-02-27 04:23:29.860 ,5,1,7.08,0.700,0.497,0.176,-1.00,-1.00,1.748E-02,1.885E-03
1979-02-27 04:23:30.290 ,1979-02-27 04:23:53.860 ,6,1,7.98,0.743,0.311,0.139,-1.00,-1.00,1.805E-02,1.882E-03
1979-02-27 04:23:54.290 ,1979-02-27 04:24:17.860 ,7,1,7.68,0.771,0.124,8.790E-02,-1.00,-1.00,2.002E-02,1.980E-03
1979-02-27 04:24:18.290 ,1979-02-27 04:24:59.860 ,8,1,9.27,0.608,0.391,0.118,-1.00,-1.00,1.901E-02,1.515E-03
1979-02-27 04:24:59.920 ,1979-02-27 04:25:05.860 ,8,-1,10.3,1.65,0.995,0.497,-1.00,-1.00,1.636E-02,3.410E-03
1979-02-27 04:25:06.290 ,1979-02-27 04:25:29.860 ,7,-1,10.8,0.864,6.216E-02,6.216E-02,-1.00,-1.00,2.340E-02,2.219E-03
1979-02-27 04:25:30.290 ,1979-02-27 04:25:53.860 ,6,-1,9.30,0.802,0.373,0.152,-1.00,-1.00,1.813E-02,1.954E-03
1979-02-27 04:25:54.290 ,1979-02-27 04:26:17.860 ,5,-1,8.26,0.756,0.186,0.108,-1.00,-1.00,1.727E-02,1.840E-03
1979-02-27 04:26:18.290 ,1979-02-27 04:26:41.860 ,4,-1,7.01,0.697,0.311,0.139,-1.00,-1.00,2.414E-02,2.176E-03
1979-02-27 04:26:42.290 ,1979-02-27 04:27:05.860 ,3,-1,7.36,0.714,0.249,0.124,-1.00,-1.00,1.911E-02,1.970E-03
1979-02-27 04:27:06.290 ,1979-02-27 04:27:29.860 ,2,-1,8.19,0.754,0.684,0.206,-1.00,-1.00,2.066E-02,2.085E-03
1979-02-27 04:27:29.920 ,1979-02-27 04:27:54.290 ,1,-1,10.5,1.41,0.497,0.203,-1.00,-1.00,2.276E-02,3.596E-03
1979-02-27 04:27:54.290 ,1979-02-27 04:28:17.860 ,1,1,8.74,0.779,0.373,0.152,-1.00,-1.00,1.884E-02,1.922E-03
1979-02-27 04:28:18.290 ,1979-02-27 04:28:41.860 ,2,1,9.65,0.817,0.497,0.176,-1.00,-1.00,2.012E-02,2.022E-03
1979-02-27 04:28:42.290 ,1979-02-27 04:29:05.860 ,3,1,8.74,0.779,0.373,0.152,-1.00,-1.00,1.960E-02,2.031E-03
1979-02-27 04:29:06.290 ,1979-02-27 04:29:29.860 ,4,1,9.23,0.799,0.249,0.124,-1.00,-1.00,2.154E-02,2.091E-03
1979-02-27 04:29:30.290 ,1979-02-27 04:29:53.860 ,5,1,8.88,0.784,0.435,0.164,-1.00,-1.00,1.504E-02,1.746E-03